TIANWANG 1B (TW-1B)
1 40927U 15051C   20010.53247976  .00013104  00000-0  17347-3 0  9994
2 40927  97.1118  60.6296 0006482 352.7694 143.9105 15.58405281242028
TIANWANG 1A (TW-1A)
1 40928U 15051D   20010.57443966  .00002673  00000-0  64960-4 0  9999
2 40928  97.1265  42.2080 0012151  52.5112  98.5261 15.41787274240886
LAPAN A2
1 40931U 15052B   20008.73385127  .00000640  00000-0  00000+0 0  9995
2 40931   5.9917  41.4791 0013162 160.0202 200.3725 14.76621920231463
LQSAT
1 40958U 15057A   20009.97077662  .00000011  00000-0  92841-5 0  9990
2 40958  97.8757  78.3559 0016931 304.8416  55.1199 14.73103361229028
CHUBUSAT 2
1 41338U 16012B   20010.15570986  .00000314  00000-0  17675-4 0  9991
2 41338  31.0032 278.9531 0013726 337.8563  22.1478 15.00229413213792
CHUBUSAT 3
1 41339U 16012C   20010.16807477  .00000297  00000-0  16336-4 0  9994
2 41339  31.0128 276.7069 0013715 345.3971  14.6267 15.00398993213798
OUFTI-1
1 41458U 16025C   20009.22350423  .00001329  00000-0  70528-4 0  9999
2 41458  98.0994 111.4990 0165466  29.6126 331.4344 15.06367611203353
E-STAR-2
1 41459U 16025D   20010.55339707  .00001476  00000-0  78532-4 0  9996
2 41459  98.0986 112.4321 0166261  26.7956 334.1734 15.05972023203527
AAUSAT 4
1 41460U 16025E   20010.52476483  .00001642  00000-0  84590-4 0  9994
2 41460  98.0961 114.2055 0156153  17.5657 343.0876 15.08075529203682
NUSAT 1
1 41557U 16033B   20010.49056391  .00001173  00000-0  46111-4 0  9994
2 41557  97.4107 101.7683 0012117 293.0545  66.9416 15.27652421201503
BEESAT 4
1 41619U 16040W   20010.11648744  .00001237  00000-0  54522-4 0  9995
2 41619  97.3428  73.2621 0011837  29.1456 331.0439 15.23598994185130
PRATHAM
1 41783U 16059A   20010.39396129  .00000057  00000-0  20147-4 0  9999
2 41783  98.0411  70.1292 0034895  96.9677 263.5496 14.63031004175620
ALSAT 1N
1 41789U 16059G   20010.41167129  .00000026  00000-0  13880-4 0  9996
2 41789  98.0441  72.5995 0029669  85.7208 274.7386 14.64288571175754
NAYIF 1

1 42017U 17008BX  20010.16962004  .00001418  00000-0  57865-4 0  9990
2 42017  97.3809  79.9308 0006923 151.8764 208.2850 15.26045512161251
MAX VALIER SAT
1 42778U 17036P   20010.42035252  .00000856  00000-0  40060-4 0  9994
2 42778  97.3287  68.2711 0011385 215.1016 144.9471 15.22342641141539
